Location: C?lan
(45.7333°N, 22.9833°E)
Time: 14:11:46
(UTC+00:00)

Daily predictions for brighter satellites

Satellite Brightness Start Highest point End
(mag) Time Altitude Azimuth Time Altitude Azimuth Time Altitude Azimuth
Cosmos 1741 Rocket 4.3 18:48:24 10° NNW 18:53:41 60° ENE 18:58:57 10° SE
Cosmos 1536 Rocket 3.9 18:49:46 10° SSE 18:53:53 45° E 18:58:04 10° NNE
Cosmos 1703 3.9 18:53:28 10° SSE 18:56:59 35° E 19:00:31 10° NNE
CARTOSAT-1 4.1 18:53:04 10° SE 18:57:09 43° ENE 19:01:15 10° N
Ariane Rocket 3.1 18:53:05 10° SSE 18:58:07 66° ENE 19:03:11 10° N
USA 245 4.1 18:55:24 10° SE 18:58:46 29° ENE 19:01:35 10° N
Cosmos 1975 Rocket 4.4 18:55:44 10° SSW 18:59:57 43° WNW 19:04:11 10° N
ATLAS 2AS CENTAUR R/B 3.5 18:54:43 10° NW 19:01:23 47° WSW 19:07:39 10° S
IRS-1A Rocket 4.5 18:55:41 10° SSE 19:01:36 90° E 19:07:30 10° NNW
PSLV R/B 4.0 19:01:55 10° NNE 19:06:06 89° W 19:10:17 10° SSW
SPOT 3 Rocket 3.9 19:04:16 10° SE 19:09:18 54° ENE 19:14:25 10° N
Terra 3.2 19:05:39 10° ESE 19:09:28 25° ENE 19:13:17 10° N
ARIANE 5 R/B 4.5 19:07:31 10° ESE 19:10:28 18° ENE 19:13:23 10° NNE
SPOT 5 3.6 19:07:53 10° SE 19:11:46 33° ENE 19:15:38 10° N
SL-24 R/B 4.4 19:08:24 10° SSE 19:12:51 83° ENE 19:18:00 10° NNW
CZ-4B R/B 0.9 19:11:13 10° NNE 19:14:07 86° E 19:17:01 10° SSW
Cosmos 1544 Rocket 4.3 19:11:55 10° NNW 19:16:10 53° W 19:20:23 10° S
RESURS DK-1 2.6 19:12:41 10° NNW 19:16:50 71° WSW 19:20:56 10° SSE
Cosmos 1850 Rocket 4.1 19:14:11 10° NNW 19:19:24 81° WSW 19:24:34 10° SSE
Cosmos 2074 Rocket 4.0 19:13:30 10° N 19:19:48 75° E 19:26:01 10° SSE
Cosmos 1271 Rocket 4.0 19:16:22 10° NNW 19:20:07 41° W 19:23:47 10° SSW
USA 276 3.6 19:17:43 10° WNW 19:20:33 34° N 19:23:21 10° ENE
Cosmos 1455 3.3 19:17:03 10° NNW 19:20:42 44° W 19:24:20 10° SSW
IRAS Rocket 4.3 19:15:26 10° NNE 19:21:00 66° ESE 19:26:30 10° S
Cosmos 2082 Rocket 3.0 19:16:07 10° SSE 19:21:06 32° ESE 19:26:06 10° NE
Cosmos 1331 Rocket 4.0 19:16:25 10° S 19:21:40 65° ESE 19:26:55 10° NNE
Cosmos 2360 4.3 19:18:54 10° NNW 19:24:40 77° ENE 19:29:57 12° SSE
Spot 2 Rocket 3.8 19:23:51 12° SE 19:28:30 53° ENE 19:33:28 10° N
Nadezhda 1 Rocket 4.1 19:23:14 10° SSE 19:29:07 54° E 19:35:02 10° NNE
Helios 1A Rocket 3.4 19:28:48 14° SE 19:32:06 45° ENE 19:36:02 10° N
GEOS 3 Rocket 4.0 19:28:10 11° SSE 19:33:01 56° SW 19:38:04 10° NW
Cosmos 1328 4.4 19:29:38 12° SSE 19:33:01 39° E 19:36:46 10° NNE
Cosmos 2084 Rocket 3.3 19:30:19 10° NW 19:34:14 76° NE 19:37:25 16° SE
Lacrosse 5 4.1 19:31:44 10° W 19:34:45 16° WSW 19:37:44 10° SSW
Cosmos 1900 4.5 19:30:26 10° NW 19:35:37 81° WSW 19:39:54 15° SSE
SPOT 1/Viking Rocket 4.4 19:32:56 10° S 19:37:52 47° W 19:42:52 10° NNW
ERS-1 Rocket 3.1 19:42:07 15° SSE 19:46:15 66° ENE 19:51:15 10° N
ATLAS 5 CENTAUR R/B 4.4 19:38:22 10° NW 19:47:03 27° W 19:50:41 10° SSW
Meteor 1-21 Rocket 4.2 19:42:27 10° S 19:48:03 84° E 19:53:48 10° NNE
Cosmos 1110 Rocket 4.4 19:45:32 10° SSW 19:50:46 67° WNW 19:56:05 10° NNE
Cosmos 1892 3.8 19:51:38 20° SE 19:53:13 27° E 19:56:26 10° NNE
X-37B 1.5 19:51:01 10° W 19:53:29 28° SSW 19:54:15 24° S
Cosmos 1302 Rocket 4.0 19:48:36 10° S 19:53:42 61° ESE 19:58:50 10° NNE
Cosmos 2154 Rocket 4.0 19:47:50 10° N 19:54:05 87° W 19:59:44 13° S
Cosmos 192 4.2 19:53:20 10° SSW 19:58:13 77° ESE 20:03:08 10° NNE
Cosmos 2228 3.5 19:54:41 10° NNW 19:58:51 56° W 20:02:34 13° S
Cosmos 968 Rocket 3.5 19:57:43 10° NNW 20:02:57 76° ENE 20:06:30 21° SSE
Cosmos 1697 Rocket 3.2 19:58:13 10° NW 20:03:40 53° WSW 20:08:06 15° S
Cosmos 1892 Rocket 3.6 20:00:54 18° S 20:04:01 60° E 20:08:20 10° NNE
Cosmos 1980 Rocket 2.2 19:58:42 10° NNW 20:04:26 82° ENE 20:08:21 21° SSE
SL-16 R/B 3.6 20:01:57 10° N 20:06:48 28° NE 20:11:07 12° ESE
USA 267 4.1 20:03:34 10° ENE 20:08:56 26° SE 20:12:17 18° SSE
SL-8 Rocket 4.4 20:03:23 10° N 20:09:26 50° ENE 20:13:23 21° SE
ATLAS 5 CENTAUR R/B 1.6 20:09:31 23° S 20:11:22 40° ESE 20:15:09 10° NE
Cosmos 2369 3.8 20:06:58 10° NNW 20:12:42 79° WSW 20:16:35 21° SSE
Cosmos 2058 Rocket 3.3 20:09:17 10° N 20:13:41 58° ENE 20:16:04 26° SSE
Resurs 01 Rocket 4.2 20:13:40 10° SW 20:16:16 15° W 20:18:53 10° NW
Cosmos 1408 2.4 20:14:47 30° SSE 20:16:17 61° E 20:19:42 10° NNE
CZ-2C R/B 3.6 20:12:20 10° NNE 20:16:54 89° ESE 20:20:34 15° SSW
Cosmos 2344 4.4 20:09:36 10° NW 20:18:41 81° SW 20:28:17 20° SSE
In-Cosmos 22 Rocket 4.5 20:17:20 23° SSE 20:20:33 48° E 20:25:45 10° NNE
COSMOS 2406 3.6 20:15:20 10° SW 20:21:04 66° WNW 20:26:48 10° NNE
SJ 16-02 3.3 20:20:56 10° N 20:24:10 19° ENE 20:26:38 13° E
Cosmos 1833 Rocket 4.2 20:21:47 10° WSW 20:26:57 37° NW 20:32:10 10° NNE
Cosmos 2366 rocket 4.2 20:23:32 10° N 20:29:49 60° ENE 20:33:35 25° SSE
Cosmos 1867 3.7 20:26:15 10° NW 20:31:41 68° WSW 20:34:38 27° SSE
Cosmos 1825 2.6 20:33:23 36° SE 20:34:20 45° E 20:37:55 10° NNE
Cosmos 2218 Rocket 4.1 20:29:48 10° N 20:36:12 67° E 20:39:55 26° SSE
Cosmos 2322 Rocket 3.3 20:35:52 10° NNW 20:41:04 35° NE 20:44:41 18° ESE
Cosmos 1869 3.5 20:37:56 10° N 20:41:47 55° E 20:42:59 38° SE
Meteor 1-27 4.2 20:36:43 10° N 20:42:17 71° ENE 20:45:08 30° SSE
USA 234 4.3 20:37:47 10° E 20:43:53 43° NNE 20:50:00 10° NW
ARIANE 5 R/B 3.1 20:44:14 26° SSW 20:46:29 55° W 20:50:51 10° NNW
Cosmos 1959 Rocket 4.4 20:40:22 10° N 20:46:30 76° E 20:49:51 29° SSE
Terra 2.7 20:44:04 20° SSW 20:46:58 42° W 20:51:31 10° NNW
GP-B 3.0 20:42:35 10° N 20:47:04 86° E 20:49:01 33° S
SPOT 5 4.3 20:46:56 13° SW 20:49:54 25° W 20:53:30 10° NW
SAR-Lupe-4 3.4 20:50:53 10° NNE 20:54:28 77° ESE 20:55:18 50° S
Cosmos 2278 3.8 20:48:56 10° NNW 20:54:38 70° WSW 20:57:25 31° S
Cosmos 2341 Rocket 4.3 20:49:08 10° NNW 20:55:22 65° W 20:59:17 24° SSW
Cosmos 864 Rocket 4.4 20:50:19 10° N 20:56:33 90° E 20:59:56 29° S
USA 276 2.0 20:53:31 10° WNW 20:56:34 73° NNE 20:56:54 63° ENE
FALCON 9 DEB 2.8 20:54:36 10° WNW 20:57:51 70° SW 20:58:00 69° S
Cosmos 1992 Rocket 4.0 20:57:38 20° SSW 21:01:19 80° WNW 21:06:36 10° NNE
Cosmos 2333 Rocket 4.0 20:56:55 10° N 21:01:30 23° NE 21:06:03 10° E
Cosmos 2082 Rocket 3.3 20:59:36 10° SW 21:05:02 43° NW 21:10:28 10° NNE
Cosmos 1633 2.6 21:05:15 51° ESE 21:05:23 51° E 21:08:46 10° NNE
Okean 1-7 Rocket 3.6 21:03:32 33° SSW 21:05:30 78° W 21:10:02 10° N
Cosmos 1758 Rocket 4.0 21:05:17 39° SE 21:06:13 46° E 21:10:26 10° NNE
Cosmos 1486 Rocket 4.1 21:02:25 10° NNW 21:07:37 69° WSW 21:09:45 36° S
ASTEX 1 3.8 21:03:59 10° N 21:08:56 62° W 21:11:40 26° SSW
ADEOS Rocket 4.1 21:06:17 23° SE 21:10:48 49° ENE 21:18:11 10° N
Cosmos 2360 Rocket 3.1 21:10:18 10° NNW 21:15:40 41° NE 21:18:47 23° ESE
Gbstr 26 Del rocket 3.3 21:16:35 45° SE 21:16:35 45° SE 21:20:54 10° ENE
Cosmos-2242 3.1 21:13:12 10° N 21:17:24 60° ENE 21:18:22 46° SE
Cosmos 1812 Rocket 3.5 21:13:22 10° N 21:17:51 78° E 21:19:01 48° SSE
Cosmos 1606 3.3 21:15:14 10° N 21:18:56 42° ENE 21:19:29 40° ESE
Cosmos 2181 Rocket 4.4 21:17:08 21° SSW 21:21:17 61° WNW 21:27:29 10° N
Cosmos 807 4.3 21:19:29 10° NNW 21:22:13 66° WNW 21:22:13 66° WNW
Cosmos 1340 Rocket 4.2 21:23:10 25° E 21:23:12 25° E 21:26:29 10° NE
Cosmos 1821 Rocket 4.0 21:17:50 10° N 21:24:04 75° E 21:26:44 36° SSE
Cosmos 1602 Rocket 3.5 21:28:28 45° SSW 21:29:43 75° W 21:34:04 10° N
Cosmos 44 3.7 21:35:47 38° ESE 21:35:47 38° ESE 21:39:51 10° NE
CENTAUR R/B 4.2 21:35:22 14° ESE 21:35:46 14° ESE 21:38:55 10° ENE
Cosmos 1354 Rocket 4.0 21:32:13 10° NNW 21:37:31 77° WSW 21:39:12 44° S
Cosmos 2237 4.2 21:32:34 10° NNW 21:38:21 87° ENE 21:40:30 40° SSE
Spot 4 3.8 21:42:42 48° S 21:44:00 75° WSW 21:48:50 10° NNW
ALOS 2 2.6 21:44:13 52° SE 21:45:09 72° ENE 21:49:33 10° N
Nadezhda 3 Rocket 3.9 21:43:20 38° S 21:45:55 86° E 21:52:07 10° N
Cosmos 1503 Rocket 4.4 21:40:53 10° NNW 21:46:01 53° WSW 21:47:32 40° SSW
Cosmos 1980 Rocket 4.2 21:44:23 10° WNW 21:47:39 16° W 21:50:07 12° SW
COSMOS 2428 4.5 21:43:17 10° N 21:48:02 26° NE 21:52:40 10° ESE
ERS-2 3.4 21:45:53 10° NE 21:48:35 28° E 21:48:35 28° E
SL-16 R/B 2.5 21:45:42 10° NW 21:51:14 55° WSW 21:52:57 40° SSW
Cosmos 1777 Rocket 3.9 21:46:01 10° NNW 21:51:20 88° WSW 21:52:54 47° SSE
Cosmos 2219 Rocket 3.4 21:46:14 10° NNW 21:51:27 36° NE 21:55:00 18° ESE
USA 267 3.2 21:45:55 10° NE 21:52:30 87° SE 21:59:03 10° SW
Cosmos 2058 2.8 21:53:50 66° SSE 21:54:22 80° E 21:58:34 10° N
H-2A R/B 3.3 21:51:34 10° NNE 21:55:47 84° ESE 21:56:24 64° S
ATLAS 5 CENTAUR R/B 3.5 21:52:48 10° W 21:56:01 25° NW 21:59:37 10° NNE
Cosmos 1953 Rocket 3.7 21:55:55 52° SE 21:56:30 57° E 22:00:51 10° NNE
Meteor 2-2 Rocket 4.3 21:53:03 10° N 21:59:07 81° E 22:01:20 41° SSE
SJ 16-02 1.7 21:58:43 10° NNW 22:03:01 50° WSW 22:03:35 47° SW
Cosmos 1825 Rocket 3.5 22:04:05 57° SW 22:04:51 74° W 22:09:13 10° N
SL-4 R/B 1.9 22:04:44 51° W 22:05:24 66° NNW 22:09:03 10° ENE
Cosmos 2221 2.7 22:10:23 10° N 22:14:43 61° E 22:15:26 52° ESE
PSLV R/B 4.1 22:12:31 10° NNE 22:17:08 50° E 22:17:51 45° SE
Cosmos 2322 Rocket 2.8 22:19:53 10° NW 22:25:11 41° WSW 22:26:28 36° SW
USA 234 3.2 22:22:04 22° SE 22:26:32 88° SW 22:33:09 10° NW
Cosmos 1842 Rocket 3.8 22:23:03 10° N 22:27:31 62° E 22:28:19 52° SE
CRYOSAT 2 4.3 22:29:27 54° S 22:30:34 87° E 22:35:30 10° N
Cosmos 1934 Rocket 4.0 22:26:33 10° NNW 22:32:36 67° W 22:34:46 41° SSW
Celestis-02/Orion 38 4.4 22:37:03 45° SSE 22:38:39 89° ENE 22:43:46 10° NNW
Cosmos 1763 Rocket 3.6 22:41:35 50° SSE 22:42:48 66° ESE 22:48:04 10° NNE
Resurs 1-4 Rocket 4.2 22:42:50 10° NE 22:45:44 15° E 22:48:00 12° ESE
Cosmos 2333 Rocket 2.2 22:40:36 10° NNW 22:46:21 71° WSW 22:48:05 46° S
Cosmos 1933 3.2 22:44:46 10° N 22:48:46 75° E 22:49:07 68° SE
USA 290 2.9 22:45:54 10° NNW 22:48:53 49° NE 22:48:53 49° NE
COSMOS 2487 2.9 22:52:54 49° NNW 22:52:54 49° NNW 22:55:23 10° NNE
Cosmos 1812 3.1 22:50:21 10° N 22:54:05 50° ENE 22:54:29 48° ESE
Cosmos 841 Rocket 4.4 22:53:16 30° SE 22:54:24 34° ESE 22:59:03 10° NE
Cosmos 990 Rocket 3.8 22:50:53 10° NNW 22:56:03 84° WSW 22:57:26 50° SSE
ADEOS Rocket 4.2 22:53:13 29° SW 22:56:19 40° W 23:03:33 10° NNW
Cosmos 972 4.4 22:51:18 10° NNW 22:56:21 80° WSW 22:57:54 48° S
Cosmos 1340 Rocket 4.3 22:58:42 24° W 22:59:31 26° WNW 23:02:53 10° NNW
Cosmos 2360 Rocket 3.0 22:54:31 10° NW 22:59:34 34° WSW 23:00:31 32° SW
ISS -3.4 23:00:48 61° NNW 23:00:50 61° NNW 23:04:10 10° ENE
CZ-2D R/B 4.0 22:57:30 10° NE 23:01:08 19° E 23:03:21 15° ESE
Cosmos 1727 Rocket 4.0 22:58:59 39° S 23:01:27 73° E 23:07:44 10° NNE
SL-23 DEB 3.7 23:02:39 56° ENE 23:02:39 56° ENE 23:05:14 10° ENE
Cosmos 2227 Rocket 4.1 23:00:37 14° ESE 23:02:36 16° E 23:05:59 10° ENE
Gbstr 26 Del rocket 3.9 22:59:00 11° W 23:03:12 54° NNW 23:08:30 10° ENE
Meteor 2-3 Rocket 3.7 23:04:49 44° SSW 23:06:40 79° WNW 23:12:17 10° N
Cosmos 1076 Rocket 3.6 23:09:44 55° SW 23:10:28 66° W 23:14:49 10° N
Cosmos 540 Rocket 3.4 23:10:08 48° S 23:11:29 71° ESE 23:16:37 10° NNE
ADEOS II 4.4 23:09:23 10° ENE 23:11:48 13° E 23:14:11 10° ESE
Cosmos 468 Rocket 4.0 23:10:37 45° SSW 23:12:17 81° WNW 23:17:39 10° NNE
SL-27 R/B 3.6 23:13:18 31° WNW 23:13:23 31° WNW 23:16:21 10° N
BREEZE-M DEB (TANK) 3.2 23:12:24 36° W 23:13:34 69° NNW 23:20:48 10° ENE
SL-16 R/B 4.1 23:08:16 10° ESE 23:13:36 31° ENE 23:18:56 10° N
NOSS 3-2 (A) 3.2 23:13:40 43° SSW 23:15:34 77° SE 23:21:53 10° NE
Cosmos 2100 Rocket 4.1 23:15:00 10° N 23:21:24 74° E 23:24:35 31° SSE
Cosmos 1862 3.6 23:21:22 49° SE 23:21:54 54° E 23:25:45 10° NNE
Cosmos 1782 2.9 23:18:14 10° NNW 23:22:08 56° W 23:22:20 55° WSW
ERS-2 4.0 23:19:29 10° NNW 23:22:13 21° WNW 23:22:56 19° W
Cosmos 2173 Rocket 4.1 23:17:24 10° N 23:23:48 73° E 23:27:07 30° SSE
CENTAUR R/B 2.4 23:22:31 39° SSW 23:24:57 82° SE 23:32:00 10° NE
Timation 1 Rocket 4.5 23:23:19 39° S 23:25:29 63° ESE 23:31:26 10° NNE
Lacrosse 4 Rocket 4.3 23:23:58 10° N 23:26:15 14° NE 23:28:31 10° ENE
Cosmos 2237 Rocket 3.0 23:20:53 10° NNW 23:26:25 49° ENE 23:31:24 12° SE
Cosmos 2297 Rocket 2.9 23:29:19 31° SSE 23:31:18 41° ESE 23:36:35 10° NE
Cosmos 2151 3.4 23:31:03 43° WSW 23:31:53 50° WNW 23:36:05 10° N
COSMOS 2428 2.8 23:27:05 10° NNW 23:32:42 61° WSW 23:34:37 40° S
USA 267 4.4 23:29:04 10° NE 23:35:10 43° NNW 23:41:15 10° W
Cosmos 2219 Rocket 2.8 23:30:11 10° NW 23:35:27 40° WSW 23:36:40 35° SW
Cosmos 2016 Rocket 4.3 23:33:15 10° N 23:39:18 62° ENE 23:43:07 23° SSE
Cosmos 2322 4.4 23:39:24 10° NW 23:44:34 37° WSW 23:45:45 33° SW
SL-4 R/B 3.5 23:41:59 10° WNW 23:45:16 32° N 23:48:46 10° ENE
Cosmos 1898 Rocket 3.8 23:40:51 10° NNW 23:45:48 47° WSW 23:47:02 39° SW
Cosmos 1151 Rocket 3.2 23:42:24 10° N 23:46:48 70° E 23:48:25 37° SSE
Cosmos 1937 Rocket 3.6 23:45:54 10° NNW 23:51:03 59° WSW 23:52:46 39° SSW
COSMOS 2455 2.9 23:47:51 10° NNW 23:53:55 82° ENE 23:59:28 12° SE
